,,PA_Meas_PMT16A,,PR_Meas_QMR101_102,,RH_Meas_QMH101,,SR_Meas_QMS101,,TA_Meas_QMH101,,GenWind,,GenWind,
time,status,PA,status,PR,status,RH,status,SR,status,TA,status,DirAvg,status,SpdAvg,
2010-09-22, 00:00:04,VALID,917.396,VALID,0,VALID,97.3968,VALID,0,VALID,20.5968,VALID,25,VALID,0,
2010-09-22, 00:01:04,VALID,917.379,VALID,0,VALID,97.3815,VALID,0,VALID,20.6374,VALID,25,VALID,0,
2010-09-22, 00:02:04,VALID,917.345,VALID,0.2,VALID,97.3891,VALID,0.107441,VALID,20.6374,VALID,25,VALID,0,
2010-09-22, 00:03:04,VALID,917.357,VALID,0,VALID,97.3815,VALID,0,VALID,20.6163,VALID,25,VALID,0,
2010-09-22, 00:04:04,VALID,917.346,VALID,0,VALID,97.3968,VALID,0.107441,VALID,20.6358,VALID,25,VALID,0,
2010-09-22, 00:05:04,VALID,917.337,VALID,0,VALID,97.3891,VALID,0,VALID,20.6358,VALID,25,VALID,0.255859,
2010-09-22, 00:06:04,VALID,917.336,VALID,0,VALID,97.3968,VALID,0.107441,VALID,20.6358,VALID,25,VALID,0,
2010-09-22, 00:07:04,VALID,917.291,VALID,0,VALID,97.3891,VALID,0.107441,VALID,20.6163,VALID,25,VALID,0,
2010-09-22, 00:08:04,VALID,917.287,VALID,0,VALID,97.4196,VALID,0,VALID,20.6374,VALID,25,VALID,0.210547,
2010-09-22, 00:09:04,VALID,917.29,VALID,0,VALID,97.4044,VALID,0.107441,VALID,20.5968,VALID,25,VALID,0.217578,
2010-09-22, 00:10:04,VALID,917.277,VALID,0,VALID,97.3891,VALID,0.107441,VALID,20.6163,VALID,25,VALID,0.469141,
2010-09-22, 00:11:04,VALID,917.283,VALID,0.2,VALID,97.4196,VALID,0,VALID,20.6374,VALID,25,VALID,0,
2010-09-22, 00:12:04,VALID,917.3,VALID,0,VALID,97.3891,VALID,0,VALID,20.6569,VALID,25,VALID,0,
2010-09-22, 00:13:04,VALID,917.292,VALID,0,VALID,97.412,VALID,0,VALID,20.6163,VALID,25,VALID,0,
2010-09-22, 00:14:04,VALID,917.284,VALID,0,VALID,97.412,VALID,0.107441,VALID,20.6163,VALID,25,VALID,0,
2010-09-22, 00:15:04,VALID,917.295,VALID,0,VALID,97.412,VALID,0.107441,VALID,20.5968,VALID,25,VALID,0,
2010-09-22, 00:16:04,VALID,917.297,VALID,0,VALID,97.3968,VALID,0,VALID,20.5773,VALID,25,VALID,0,
2010-09-22, 00:17:04,VALID,917.293,VALID,0,VALID,97.4044,VALID,0,VALID,20.5789,VALID,25,VALID,0.357031,
2010-09-22, 00:18:04,VALID,917.278,VALID,0,VALID,97.4273,VALID,0.107441,VALID,20.5383,VALID,25,VALID,0.311719,
2010-09-22, 00:19:04,VALID,917.286,VALID,0,VALID,97.4044,VALID,0,VALID,20.5383,VALID,25,VALID,0.251953,
2010-09-22, 00:20:05,VALID,917.286,VALID,0,VALID,97.412,VALID,0,VALID,20.5578,VALID,25,VALID,0.36875,
2010-09-22, 00:21:05,VALID,917.282,VALID,0,VALID,97.3968,VALID,0.107441,VALID,20.5399,VALID,25,VALID,0.347266,
2010-09-22, 00:22:05,VALID,917.251,VALID,0,VALID,97.4044,VALID,0,VALID,20.4993,VALID,25,VALID,0.406641,
2010-09-22, 00:23:05,VALID,917.252,VALID,0,VALID,97.4044,VALID,0.107441,VALID,20.5188,VALID,25,VALID,0.486719,
2010-09-22, 00:24:05,VALID,917.214,VALID,0.2,VALID,97.4273,VALID,0.107441,VALID,20.4993,VALID,25,VALID,0.437891,
2010-09-22, 00:25:05,VALID,917.188,VALID,0,VALID,97.4196,VALID,0,VALID,20.4798,VALID,25,VALID,0.338672,
2010-09-22, 00:26:05,VALID,917.171,VALID,0,VALID,97.412,VALID,0.107441,VALID,20.4798,VALID,25,VALID,0.236328,
2010-09-22, 00:27:05,VALID,917.171,VALID,0,VALID,97.4044,VALID,0.107441,VALID,20.5188,VALID,25,VALID,0.176953,
2010-09-22, 00:28:05,VALID,917.156,VALID,0,VALID,97.412,VALID,0.107441,VALID,20.4993,VALID,25,VALID,0,
2010-09-22, 00:29:05,VALID,917.175,VALID,0,VALID,97.4273,VALID,0,VALID,20.4993,VALID,25,VALID,0,
2010-09-22, 00:30:05,VALID,917.148,VALID,0,VALID,97.412,VALID,0.107441,VALID,20.4798,VALID,25,VALID,0,
2010-09-22, 00:31:05,VALID,917.147,VALID,0,VALID,97.4196,VALID,0.107441,VALID,20.4213,VALID,25,VALID,0,
2010-09-22, 00:32:05,VALID,917.149,VALID,0,VALID,97.4044,VALID,0,VALID,20.3823,VALID,25,VALID,0,
2010-09-22, 00:33:05,VALID,917.167,VALID,0,VALID,97.4196,VALID,0,VALID,20.3628,VALID,25,VALID,0,
2010-09-22, 00:34:05,VALID,917.155,VALID,0,VALID,97.4273,VALID,0.107441,VALID,20.3628,VALID,25,VALID,0,
2010-09-22, 00:35:05,VALID,917.145,VALID,0,VALID,97.4425,VALID,0.107441,VALID,20.4018,VALID,25,VALID,0,
2010-09-22, 00:36:05,VALID,917.121,VALID,0,VALID,97.4425,VALID,0.107441,VALID,20.3823,VALID,25,VALID,0,
2010-09-22, 00:37:05,VALID,917.131,VALID,0,VALID,97.412,VALID,0.107441,VALID,20.4228,VALID,25,VALID,0,
2010-09-22, 00:38:05,VALID,917.101,VALID,0,VALID,97.412,VALID,0.107441,VALID,20.4018,VALID,25,VALID,0,
2010-09-22, 00:39:05,VALID,917.1,VALID,0,VALID,97.4349,VALID,0,VALID,20.4213,VALID,25,VALID,0.242188,
2010-09-22, 00:40:05,VALID,917.1,VALID,0.2,VALID,97.4425,VALID,0.107441,VALID,20.4213,VALID,25,VALID,0.338281,
2010-09-22, 00:41:05,VALID,917.118,VALID,0,VALID,97.4501,VALID,0,VALID,20.3628,VALID,25,VALID,0.487109,
2010-09-22, 00:42:05,VALID,917.092,VALID,0,VALID,97.4501,VALID,0,VALID,20.3448,VALID,25,VALID,0.397656,
2010-09-22, 00:43:05,VALID,917.099,VALID,0,VALID,97.4425,VALID,0,VALID,20.3659,VALID,25,VALID,0.326953,
2010-09-22, 00:44:05,VALID,917.09,VALID,0,VALID,97.4349,VALID,0,VALID,20.3643,VALID,25,VALID,0.247656,
2010-09-22, 00:45:05,VALID,917.076,VALID,0,VALID,97.4577,VALID,0,VALID,20.3643,VALID,25,VALID,0.172656,
2010-09-22, 00:46:05,VALID,917.075,VALID,0,VALID,97.4501,VALID,0,VALID,20.3838,VALID,25,VALID,0.0984375,
2010-09-22, 00:47:05,VALID,917.083,VALID,0,VALID,97.4425,VALID,0,VALID,20.4033,VALID,25,VALID,0.121094,
2010-09-22, 00:48:05,VALID,917.045,VALID,0,VALID,97.4349,VALID,0,VALID,20.4244,VALID,25,VALID,0.172266,
2010-09-22, 00:49:05,VALID,917.05,VALID,0,VALID,97.4273,VALID,0,VALID,20.4033,VALID,25,VALID,0.205078,
2010-09-22, 00:50:05,VALID,917.05,VALID,0,VALID,97.4577,VALID,0,VALID,20.4244,VALID,25,VALID,0.276953,
2010-09-22, 00:51:05,VALID,917.074,VALID,0,VALID,97.4501,VALID,0,VALID,20.4244,VALID,25,VALID,0.400391,
2010-09-22, 00:52:05,VALID,917.071,VALID,0,VALID,97.4425,VALID,0,VALID,20.4033,VALID,25,VALID,0.411328,
2010-09-22, 00:53:05,VALID,917.088,VALID,0,VALID,97.4501,VALID,0,VALID,20.3838,VALID,25,VALID,0.472266,
2010-09-22, 00:54:05,VALID,917.036,VALID,0,VALID,97.4425,VALID,0,VALID,20.3854,VALID,25,VALID,0.430469,
2010-09-22, 00:55:05,VALID,917.069,VALID,0,VALID,97.4501,VALID,0,VALID,20.3643,VALID,25,VALID,0.513672,
2010-09-22, 00:56:05,VALID,917.049,VALID,0,VALID,97.4425,VALID,0,VALID,20.3448,VALID,25,VALID,0.308594,
2010-09-22, 00:57:05,VALID,917.012,VALID,0.2,VALID,97.4577,VALID,0,VALID,20.3433,VALID,25,VALID,0.116016,
2010-09-22, 00:58:05,VALID,916.988,VALID,0,VALID,97.4501,VALID,0.107441,VALID,20.3838,VALID,25,VALID,0,
2010-09-22, 00:59:05,VALID,916.991,VALID,0,VALID,97.4577,VALID,0,VALID,20.3823,VALID,25,VALID,0,
2010-09-22, 01:00:05,VALID,916.966,VALID,0,VALID,97.4349,VALID,0,VALID,20.4033,VALID,25,VALID,0,
2010-09-22, 01:01:05,VALID,916.969,VALID,0,VALID,97.4577,VALID,0,VALID,20.4018,VALID,25,VALID,0,
2010-09-22, 01:02:05,VALID,916.946,VALID,0,VALID,97.4425,VALID,0.107441,VALID,20.4228,VALID,25,VALID,0,
2010-09-22, 01:03:05,VALID,916.95,VALID,0,VALID,97.4577,VALID,0,VALID,20.4618,VALID,25,VALID,0,
2010-09-22, 01:04:05,VALID,916.961,VALID,0,VALID,97.4349,VALID,0.107441,VALID,20.4408,VALID,25,VALID,0,
2010-09-22, 01:05:05,VALID,916.972,VALID,0,VALID,97.4501,VALID,0.107441,VALID,20.4618,VALID,25,VALID,0,
2010-09-22, 01:06:05,VALID,916.94,VALID,0,VALID,97.4425,VALID,0.107441,VALID,20.4213,VALID,25,VALID,0,
2010-09-22, 01:07:05,VALID,916.938,VALID,0,VALID,97.4501,VALID,0.107441,VALID,20.4213,VALID,25,VALID,0,
2010-09-22, 01:08:05,VALID,916.91,VALID,0,VALID,97.4577,VALID,0.107441,VALID,20.4228,VALID,25,VALID,0,
2010-09-22, 01:09:05,VALID,916.872,VALID,0,VALID,97.4577,VALID,0.107441,VALID,20.4408,VALID,25,VALID,0,
2010-09-22, 01:10:05,VALID,916.881,VALID,0,VALID,97.4349,VALID,0,VALID,20.4408,VALID,25,VALID,0,
2010-09-22, 01:11:05,VALID,916.857,VALID,0,VALID,97.4425,VALID,0,VALID,20.4228,VALID,25,VALID,0,
2010-09-22, 01:12:05,VALID,916.861,VALID,0,VALID,97.4501,VALID,0,VALID,20.4244,VALID,25,VALID,0,
2010-09-22, 01:13:05,VALID,916.843,VALID,0,VALID,97.4577,VALID,0,VALID,20.4244,VALID,25,VALID,0,
2010-09-22, 01:14:05,VALID,916.849,VALID,0,VALID,97.4577,VALID,0,VALID,20.4033,VALID,25,VALID,0,
2010-09-22, 01:15:05,VALID,916.847,VALID,0,VALID,97.4501,VALID,0,VALID,20.3643,VALID,25,VALID,0,
2010-09-22, 01:16:05,VALID,916.858,VALID,0,VALID,97.4654,VALID,0,VALID,20.4049,VALID,25,VALID,0,
2010-09-22, 01:17:05,VALID,916.817,VALID,0,VALID,97.4654,VALID,0,VALID,20.3854,VALID,25,VALID,0,
2010-09-22, 01:18:05,VALID,916.829,VALID,0,VALID,97.473,VALID,0,VALID,20.3854,VALID,25,VALID,0.412109,
2010-09-22, 01:19:05,VALID,916.789,VALID,0,VALID,97.473,VALID,0,VALID,20.3448,VALID,25,VALID,0.362109,
2010-09-22, 01:20:05,VALID,916.795,VALID,0,VALID,97.4654,VALID,0,VALID,20.3448,VALID,25,VALID,0.260938,
2010-09-22, 01:21:05,VALID,916.764,VALID,0,VALID,97.4654,VALID,0,VALID,20.3448,VALID,25,VALID,0.105859,
2010-09-22, 01:22:05,VALID,916.752,VALID,0,VALID,97.473,VALID,0,VALID,20.3643,VALID,25,VALID,0.287891,
2010-09-22, 01:23:05,VALID,916.755,VALID,0,VALID,97.4501,VALID,0,VALID,20.4049,VALID,25,VALID,0.0179687,
2010-09-22, 01:24:05,VALID,916.695,VALID,0,VALID,97.4577,VALID,0,VALID,20.4033,VALID,25,VALID,0.326172,
2010-09-22, 01:25:05,VALID,916.667,VALID,0,VALID,97.4501,VALID,0,VALID,20.4439,VALID,25,VALID,0.271484,
2010-09-22, 01:26:05,VALID,916.645,VALID,0,VALID,97.4806,VALID,0,VALID,20.4439,VALID,25,VALID,0.288281,
2010-09-22, 01:27:05,VALID,916.627,VALID,0,VALID,97.473,VALID,0,VALID,20.4634,VALID,25,VALID,0.29375,
2010-09-22, 01:28:05,VALID,916.584,VALID,0,VALID,97.4501,VALID,0,VALID,20.4634,VALID,25,VALID,0.322656,
2010-09-22, 01:29:05,VALID,916.578,VALID,0,VALID,97.4501,VALID,0,VALID,20.4634,VALID,25,VALID,0.5625,
2010-09-22, 01:30:05,VALID,916.571,VALID,0,VALID,97.4577,VALID,0,VALID,20.4634,VALID,25,VALID,0.225,
2010-09-22, 01:31:05,VALID,916.574,VALID,0,VALID,97.4577,VALID,0,VALID,20.4439,VALID,25,VALID,0.294922,
2010-09-22, 01:32:05,VALID,916.546,VALID,0,VALID,97.4654,VALID,0,VALID,20.4423,VALID,25,VALID,0.410156,
2010-09-22, 01:33:05,VALID,916.537,VALID,0,VALID,97.4577,VALID,0,VALID,20.4423,VALID,25,VALID,0.122656,
2010-09-22, 01:34:05,VALID,916.538,VALID,0,VALID,97.4349,VALID,0,VALID,20.4423,VALID,25,VALID,0,
2010-09-22, 01:35:05,VALID,916.481,VALID,0,VALID,97.4577,VALID,0,VALID,20.4813,VALID,25,VALID,0.00234375,
2010-09-22, 01:36:05,VALID,916.467,VALID,0,VALID,97.4501,VALID,0,VALID,20.4829,VALID,25,VALID,0.369141,
2010-09-22, 01:37:05,VALID,916.452,VALID,0,VALID,97.4577,VALID,0,VALID,20.4634,VALID,25,VALID,0.526953,
2010-09-22, 01:38:05,VALID,916.428,VALID,0,VALID,97.4577,VALID,0,VALID,20.4634,VALID,25,VALID,0.258984,
2010-09-22, 01:39:05,VALID,916.388,VALID,0,VALID,97.4806,VALID,0,VALID,20.4634,VALID,25,VALID,0.416797,
2010-09-22, 01:40:05,VALID,916.356,VALID,0,VALID,97.4654,VALID,0,VALID,20.4634,VALID,25,VALID,0.244141,
2010-09-22, 01:41:05,VALID,916.31,VALID,0,VALID,97.4654,VALID,0,VALID,20.4634,VALID,25,VALID,0.211719,
2010-09-22, 01:42:05,VALID,916.283,VALID,0,VALID,97.4501,VALID,0,VALID,20.4829,VALID,25,VALID,0,
2010-09-22, 01:43:05,VALID,916.238,VALID,0,VALID,97.4806,VALID,0,VALID,20.4829,VALID,25,VALID,0,
2010-09-22, 01:44:05,VALID,916.222,VALID,0,VALID,97.4654,VALID,0,VALID,20.5024,VALID,25,VALID,0,
2010-09-22, 01:45:05,VALID,916.2,VALID,0,VALID,97.4425,VALID,0,VALID,20.5024,VALID,25,VALID,0,
2010-09-22, 01:46:05,VALID,916.182,VALID,0,VALID,97.4425,VALID,0,VALID,20.5024,VALID,25,VALID,0,
2010-09-22, 01:47:05,VALID,916.162,VALID,0,VALID,97.4501,VALID,0,VALID,20.5024,VALID,25,VALID,0,
2010-09-22, 01:48:05,VALID,916.17,VALID,0,VALID,97.4654,VALID,0,VALID,20.4829,VALID,25,VALID,0,
2010-09-22, 01:49:05,VALID,916.184,VALID,0,VALID,97.4654,VALID,0,VALID,20.4829,VALID,25,VALID,0,
2010-09-22, 01:50:05,VALID,916.183,VALID,0,VALID,97.4577,VALID,0,VALID,20.4634,VALID,25,VALID,0.310937,
2010-09-22, 01:51:05,VALID,916.217,VALID,0,VALID,97.4577,VALID,0,VALID,20.4049,VALID,25,VALID,0.520703,
2010-09-22, 01:52:05,VALID,916.207,VALID,0,VALID,97.4654,VALID,0,VALID,20.4049,VALID,25,VALID,0.592578,
2010-09-22, 01:53:05,VALID,916.197,VALID,0,VALID,97.4654,VALID,0,VALID,20.4049,VALID,25,VALID,0.573438,
2010-09-22, 01:54:05,VALID,916.206,VALID,0,VALID,97.473,VALID,0,VALID,20.3854,VALID,25,VALID,0.320313,
2010-09-22, 01:55:05,VALID,916.179,VALID,0,VALID,97.4654,VALID,0,VALID,20.3448,VALID,25,VALID,0.110547,
2010-09-22, 01:56:05,VALID,916.143,VALID,0,VALID,97.4577,VALID,0,VALID,20.3464,VALID,25,VALID,0,
2010-09-22, 01:57:05,VALID,916.151,VALID,0,VALID,97.4577,VALID,0.107441,VALID,20.3253,VALID,25,VALID,0,
2010-09-22, 01:58:05,VALID,916.135,VALID,0,VALID,97.4806,VALID,0.107441,VALID,20.3253,VALID,25,VALID,0,
2010-09-22, 01:59:05,VALID,916.135,VALID,0,VALID,97.4654,VALID,0,VALID,20.3253,VALID,25,VALID,0,
2010-09-22, 02:00:05,VALID,916.108,VALID,0,VALID,97.473,VALID,0,VALID,20.2848,VALID,25,VALID,0,
2010-09-22, 02:01:05,VALID,916.091,VALID,0,VALID,97.4654,VALID,0,VALID,20.3253,VALID,25,VALID,0,
2010-09-22, 02:02:05,VALID,916.099,VALID,0,VALID,97.4806,VALID,0,VALID,20.3058,VALID,25,VALID,0,
2010-09-22, 02:03:05,VALID,916.1,VALID,0,VALID,97.473,VALID,0,VALID,20.3043,VALID,25,VALID,0,
2010-09-22, 02:04:05,VALID,916.099,VALID,0,VALID,97.4806,VALID,0.107441,VALID,20.2668,VALID,25,VALID,0,
2010-09-22, 02:05:05,VALID,916.11,VALID,0,VALID,97.4959,VALID,0,VALID,20.2068,VALID,25,VALID,0.555859,
2010-09-22, 02:06:05,VALID,916.12,VALID,0,VALID,97.4959,VALID,0,VALID,20.2083,VALID,25,VALID,0.693359,
2010-09-22, 02:07:05,VALID,916.136,VALID,0,VALID,97.4806,VALID,0,VALID,20.2083,VALID,25,VALID,0.582812,
2010-09-22, 02:08:05,VALID,916.107,VALID,0,VALID,97.4806,VALID,0.107441,VALID,20.1873,VALID,25,VALID,0.779297,
2010-09-22, 02:09:05,VALID,916.061,VALID,0,VALID,97.5035,VALID,0.107441,VALID,20.1873,VALID,25,VALID,0.383984,
2010-09-22, 02:10:05,VALID,916.056,VALID,0,VALID,97.5187,VALID,0,VALID,20.2083,VALID,25,VALID,0.219531,
2010-09-22, 02:11:05,VALID,916.027,VALID,0,VALID,97.5187,VALID,0.107441,VALID,20.2083,VALID,25,VALID,0.638281,
2010-09-22, 02:12:05,VALID,915.987,VALID,0,VALID,97.4882,VALID,0,VALID,20.2083,VALID,25,VALID,0.280469,
2010-09-22, 02:13:05,VALID,915.939,VALID,0,VALID,97.4959,VALID,0,VALID,20.2489,VALID,25,VALID,0.704687,
2010-09-22, 02:14:05,VALID,915.947,VALID,0,VALID,97.4959,VALID,0,VALID,20.2489,VALID,25,VALID,0.762891,
2010-09-22, 02:15:05,VALID,915.924,VALID,0,VALID,97.4806,VALID,0,VALID,20.2489,VALID,25,VALID,0.269531,
2010-09-22, 02:16:05,VALID,915.918,VALID,0,VALID,97.5111,VALID,0,VALID,20.2293,VALID,25,VALID,0.203516,
2010-09-22, 02:17:05,VALID,915.931,VALID,0,VALID,97.5264,VALID,0,VALID,20.2278,VALID,25,VALID,0.846484,
2010-09-22, 02:18:05,VALID,915.899,VALID,0,VALID,97.5035,VALID,0,VALID,20.2278,VALID,25,VALID,0.357812,
2010-09-22, 02:19:05,VALID,915.919,VALID,0,VALID,97.5264,VALID,0,VALID,20.2684,VALID,25,VALID,0.74375,
2010-09-22, 02:20:05,VALID,915.922,VALID,0,VALID,97.5035,VALID,0,VALID,20.2473,VALID,25,VALID,0.391016,
2010-09-22, 02:21:05,VALID,915.917,VALID,0,VALID,97.5111,VALID,0,VALID,20.2473,VALID,25,VALID,0.146484,
2010-09-22, 02:22:05,VALID,915.944,VALID,0,VALID,97.4959,VALID,0,VALID,20.2879,VALID,25,VALID,0.00585938,
2010-09-22, 02:23:05,VALID,915.943,VALID,0,VALID,97.4882,VALID,0,VALID,20.3074,VALID,25,VALID,0,
2010-09-22, 02:24:05,VALID,915.981,VALID,0,VALID,97.4959,VALID,0,VALID,20.3269,VALID,25,VALID,0,
2010-09-22, 02:25:05,VALID,915.999,VALID,0,VALID,97.4959,VALID,0,VALID,20.3659,VALID,25,VALID,0.134766,
2010-09-22, 02:26:05,VALID,915.984,VALID,0,VALID,97.5035,VALID,0,VALID,20.3464,VALID,25,VALID,0.300781,
2010-09-22, 02:27:05,VALID,915.963,VALID,0,VALID,97.4806,VALID,0,VALID,20.3058,VALID,25,VALID,0.31875,
2010-09-22, 02:28:05,VALID,915.92,VALID,0,VALID,97.4806,VALID,0,VALID,20.3269,VALID,25,VALID,0.397656,
2010-09-22, 02:29:05,VALID,915.904,VALID,0,VALID,97.4959,VALID,0,VALID,20.3253,VALID,25,VALID,0.363672,
2010-09-22, 02:30:05,VALID,915.89,VALID,0,VALID,97.4806,VALID,0,VALID,20.3269,VALID,25,VALID,0,
2010-09-22, 02:31:05,VALID,915.86,VALID,0,VALID,97.4806,VALID,0,VALID,20.3074,VALID,25,VALID,0,
2010-09-22, 02:32:05,VALID,915.822,VALID,0,VALID,97.4959,VALID,0,VALID,20.2668,VALID,25,VALID,0,
2010-09-22, 02:33:05,VALID,915.819,VALID,0,VALID,97.4959,VALID,0,VALID,20.2684,VALID,25,VALID,0,
2010-09-22, 02:34:05,VALID,915.793,VALID,0,VALID,97.4959,VALID,0,VALID,20.2278,VALID,25,VALID,0,
2010-09-22, 02:35:05,VALID,915.797,VALID,0,VALID,97.5035,VALID,0,VALID,20.2489,VALID,25,VALID,0.278516,
2010-09-22, 02:36:05,VALID,915.782,VALID,0,VALID,97.4806,VALID,0,VALID,20.2278,VALID,25,VALID,0.267969,
2010-09-22, 02:37:05,VALID,915.795,VALID,0,VALID,97.5111,VALID,0,VALID,20.1888,VALID,25,VALID,0.446094,
2010-09-22, 02:38:05,VALID,915.799,VALID,0,VALID,97.4959,VALID,0,VALID,20.2098,VALID,25,VALID,0.345313,
2010-09-22, 02:39:05,VALID,915.799,VALID,0,VALID,97.5035,VALID,0,VALID,20.1888,VALID,25,VALID,0.185547,
2010-09-22, 02:40:05,VALID,915.77,VALID,0,VALID,97.4882,VALID,0,VALID,20.2293,VALID,25,VALID,0.360156,
2010-09-22, 02:41:05,VALID,915.764,VALID,0,VALID,97.5035,VALID,0,VALID,20.2114,VALID,25,VALID,0.324219,
2010-09-22, 02:42:05,VALID,915.756,VALID,0,VALID,97.5187,VALID,0,VALID,20.1693,VALID,25,VALID,0.495703,
2010-09-22, 02:43:05,VALID,915.75,VALID,0,VALID,97.5264,VALID,0,VALID,20.1708,VALID,25,VALID,0.577734,
2010-09-22, 02:44:05,VALID,915.77,VALID,0,VALID,97.5264,VALID,0,VALID,20.1303,VALID,25,VALID,0.691016,
2010-09-22, 02:45:05,VALID,915.759,VALID,0,VALID,97.5187,VALID,0,VALID,20.1513,VALID,25,VALID,0.658984,
2010-09-22, 02:46:05,VALID,915.759,VALID,0,VALID,97.5187,VALID,0,VALID,20.1108,VALID,25,VALID,0.684766,
2010-09-22, 02:47:05,VALID,915.751,VALID,0,VALID,97.5264,VALID,0,VALID,20.1123,VALID,25,VALID,0.769922,
2010-09-22, 02:48:05,VALID,915.762,VALID,0,VALID,97.5187,VALID,0,VALID,20.0928,VALID,25,VALID,0.558984,
2010-09-22, 02:49:05,VALID,915.716,VALID,0,VALID,97.5187,VALID,0,VALID,20.0913,VALID,25,VALID,0.503125,
2010-09-22, 02:50:05,VALID,915.733,VALID,0,VALID,97.5264,VALID,0,VALID,20.0718,VALID,25,VALID,0.491797,
2010-09-22, 02:51:05,VALID,915.723,VALID,0,VALID,97.534,VALID,0,VALID,20.0913,VALID,25,VALID,0.213672,
2010-09-22, 02:52:05,VALID,915.689,VALID,0,VALID,97.534,VALID,0,VALID,20.1318,VALID,25,VALID,0.0894531,
2010-09-22, 02:53:05,VALID,915.649,VALID,0,VALID,97.5111,VALID,0,VALID,20.1108,VALID,25,VALID,0.0636719,
2010-09-22, 02:54:05,VALID,915.653,VALID,0,VALID,97.5264,VALID,0,VALID,20.1498,VALID,25,VALID,0.410156,
2010-09-22, 02:55:05,VALID,915.591,VALID,0,VALID,97.5187,VALID,0,VALID,20.1498,VALID,25,VALID,0,
2010-09-22, 02:56:05,VALID,915.573,VALID,0,VALID,97.5187,VALID,0,VALID,20.1903,VALID,25,VALID,0,
2010-09-22, 02:57:05,VALID,915.555,VALID,0,VALID,97.5264,VALID,0,VALID,20.1708,VALID,25,VALID,0.334766,
2010-09-22, 02:58:05,VALID,915.556,VALID,0,VALID,97.5187,VALID,0,VALID,20.1693,VALID,25,VALID,0.429297,
2010-09-22, 02:59:05,VALID,915.507,VALID,0,VALID,97.534,VALID,0,VALID,20.1693,VALID,25,VALID,0.537109,
2010-09-22, 03:00:05,VALID,915.479,VALID,0,VALID,97.5416,VALID,0,VALID,20.1903,VALID,25,VALID,0.542578,
2010-09-22, 03:01:05,VALID,915.47,VALID,0,VALID,97.5187,VALID,0,VALID,20.1708,VALID,25,VALID,0.426562,
2010-09-22, 03:02:05,VALID,915.444,VALID,0,VALID,97.5187,VALID,0,VALID,20.1693,VALID,25,VALID,0,
2010-09-22, 03:03:05,VALID,915.459,VALID,0,VALID,97.5492,VALID,0,VALID,20.1708,VALID,25,VALID,0.203906,
2010-09-22, 03:04:05,VALID,915.469,VALID,0,VALID,97.5264,VALID,0,VALID,20.1708,VALID,25,VALID,0.308203,
2010-09-22, 03:05:05,VALID,915.484,VALID,0,VALID,97.534,VALID,0,VALID,20.1123,VALID,25,VALID,0.651953,
2010-09-22, 03:06:04,VALID,915.533,VALID,0,VALID,97.5264,VALID,0,VALID,20.0928,VALID,25,VALID,0.701172,
2010-09-22, 03:07:04,VALID,915.542,VALID,0,VALID,97.534,VALID,0,VALID,20.0538,VALID,25,VALID,0.514063,
2010-09-22, 03:08:04,VALID,915.525,VALID,0,VALID,97.534,VALID,0,VALID,20.0538,VALID,25,VALID,0.384375,
2010-09-22, 03:09:04,VALID,915.535,VALID,0,VALID,97.5416,VALID,0,VALID,20.0343,VALID,25,VALID,0.687891,
2010-09-22, 03:10:04,VALID,915.525,VALID,0,VALID,97.5492,VALID,0,VALID,20.0343,VALID,25,VALID,0.333203,
2010-09-22, 03:11:04,VALID,915.542,VALID,0,VALID,97.5416,VALID,0,VALID,20.0538,VALID,25,VALID,0.751562,
2010-09-22, 03:12:04,VALID,915.508,VALID,0,VALID,97.5416,VALID,0.107441,VALID,20.0718,VALID,25,VALID,0.262891,
2010-09-22, 03:13:04,VALID,915.516,VALID,0,VALID,97.534,VALID,0.107441,VALID,20.0508,VALID,25,VALID,0.426172,
2010-09-22, 03:14:04,VALID,915.479,VALID,0,VALID,97.5416,VALID,0.107441,VALID,20.0718,VALID,25,VALID,0.544531,
2010-09-22, 03:15:04,VALID,915.527,VALID,0,VALID,97.5416,VALID,0.107441,VALID,20.0913,VALID,25,VALID,0.388281,
2010-09-22, 03:16:04,VALID,915.497,VALID,0,VALID,97.5416,VALID,0.107441,VALID,20.0718,VALID,25,VALID,0.409766,
2010-09-22, 03:17:04,VALID,915.501,VALID,0,VALID,97.5492,VALID,0,VALID,20.0718,VALID,25,VALID,0.599219,
2010-09-22, 03:18:04,VALID,915.48,VALID,0,VALID,97.5416,VALID,0.107441,VALID,20.0913,VALID,25,VALID,1.11094,
2010-09-22, 03:19:04,VALID,915.475,VALID,0,VALID,97.5492,VALID,0.107441,VALID,20.0898,VALID,26,VALID,0.764453,
2010-09-22, 03:20:04,VALID,915.481,VALID,0,VALID,97.534,VALID,0.107441,VALID,20.1108,VALID,26,VALID,0.706641,
2010-09-22, 03:21:04,VALID,915.445,VALID,0,VALID,97.534,VALID,0.107441,VALID,20.1498,VALID,26,VALID,0.428125,
2010-09-22, 03:22:04,VALID,915.437,VALID,0,VALID,97.5416,VALID,0,VALID,20.1303,VALID,125,VALID,1.07891,
2010-09-22, 03:23:04,VALID,915.43,VALID,0,VALID,97.534,VALID,0.107441,VALID,20.1303,VALID,139,VALID,0.636719,
2010-09-22, 03:24:04,VALID,915.384,VALID,0,VALID,97.5492,VALID,0,VALID,20.1288,VALID,139,VALID,0.73125,
2010-09-22, 03:25:04,VALID,915.367,VALID,0,VALID,97.5492,VALID,0,VALID,20.1093,VALID,139,VALID,0.750781,
2010-09-22, 03:26:04,VALID,915.345,VALID,0,VALID,97.5416,VALID,0.107441,VALID,20.1303,VALID,139,VALID,0.262891,
2010-09-22, 03:27:04,VALID,915.315,VALID,0,VALID,97.534,VALID,0,VALID,20.1303,VALID,139,VALID,0.946094,
2010-09-22, 03:28:04,VALID,915.337,VALID,0,VALID,97.5416,VALID,0,VALID,20.1303,VALID,139,VALID,0.651563,
2010-09-22, 03:29:04,VALID,915.303,VALID,0,VALID,97.5492,VALID,0,VALID,20.1093,VALID,139,VALID,0.991016,
2010-09-22, 03:30:04,VALID,915.304,VALID,0,VALID,97.5416,VALID,0,VALID,20.1303,VALID,139,VALID,0.417188,
2010-09-22, 03:31:04,VALID,915.313,VALID,0,VALID,97.5416,VALID,0.107441,VALID,20.0913,VALID,139,VALID,1.08398,
2010-09-22, 03:32:04,VALID,915.339,VALID,0,VALID,97.5416,VALID,0,VALID,20.0703,VALID,139,VALID,0.459766,
2010-09-22, 03:33:04,VALID,915.335,VALID,0,VALID,97.534,VALID,0,VALID,20.0718,VALID,139,VALID,0.765625,
2010-09-22, 03:34:04,VALID,915.311,VALID,0,VALID,97.5416,VALID,0.107441,VALID,20.0313,VALID,139,VALID,0.858594,
2010-09-22, 03:35:04,VALID,915.332,VALID,0,VALID,97.5569,VALID,0.107441,VALID,20.0328,VALID,139,VALID,0.719922,
2010-09-22, 03:36:04,VALID,915.305,VALID,0,VALID,97.5569,VALID,0,VALID,20.0118,VALID,139,VALID,0.482812,
2010-09-22, 03:37:04,VALID,915.325,VALID,0,VALID,97.5721,VALID,0,VALID,20.0133,VALID,150,VALID,0.970703,
2010-09-22, 03:38:04,VALID,915.324,VALID,0,VALID,97.5721,VALID,0,VALID,19.9938,VALID,136,VALID,0.825781,
2010-09-22, 03:39:04,VALID,915.325,VALID,0,VALID,97.5721,VALID,0,VALID,19.9743,VALID,136,VALID,0.503906,
2010-09-22, 03:40:04,VALID,915.337,VALID,0,VALID,97.5645,VALID,0,VALID,19.9743,VALID,136,VALID,0.369531,
2010-09-22, 03:41:04,VALID,915.33,VALID,0,VALID,97.5721,VALID,0,VALID,19.9548,VALID,136,VALID,0.422266,
2010-09-22, 03:42:04,VALID,915.352,VALID,0,VALID,97.5645,VALID,0,VALID,19.9563,VALID,136,VALID,0.433594,
2010-09-22, 03:43:04,VALID,915.35,VALID,0,VALID,97.5873,VALID,0,VALID,19.9353,VALID,136,VALID,0.923437,
2010-09-22, 03:44:04,VALID,915.361,VALID,0,VALID,97.5797,VALID,0,VALID,19.9158,VALID,136,VALID,0.591016,
2010-09-22, 03:45:04,VALID,915.357,VALID,0,VALID,97.5873,VALID,0,VALID,19.9158,VALID,136,VALID,0.664453,
2010-09-22, 03:46:04,VALID,915.361,VALID,0,VALID,97.5645,VALID,0,VALID,19.9368,VALID,136,VALID,0.575781,
2010-09-22, 03:47:04,VALID,915.346,VALID,0,VALID,97.5873,VALID,0,VALID,19.9563,VALID,136,VALID,0.837891,